Weather History for Aspen, CO

Change the Weather History Date:

Wednesday, August 7, 2013

  Actual Average Record
Temperature  
Mean Temperature 56 °F 63 °F  
Max Temperature 65 °F 79 °F 84 °F (1983)
Min Temperature 46 °F 47 °F 39 °F (1992)
Degree Days  
Heating Degree Days 9 3  
Month to date heating degree days 34 17  
Since 1 June heating degree days 212 317  
Since 1 July heating degree days 66 88  
Cooling Degree Days 0 1  
Month to date cooling degree days 0 7  
Year to date cooling degree days 56 36  
Since 1 June cooling degree days 56 36  
Growing Degree Days 5 (Base 50)    
Moisture  
Dew Point 45 °F    
Average Humidity 68    
Maximum Humidity 93    
Minimum Humidity 43    
Precipitation  
Precipitation 0.05 in 0.07 in 0.50 in (1983)
Month to date precipitation 0.68 0.48  
Year to date precipitation 9.03 10.26  
Sea Level Pressure  
Sea Level Pressure 30.00 in    
Wind  
Wind Speed 5 mph (SSE)    
Max Wind Speed 22 mph    
Max Gust Speed 29 mph    
Visibility 10 miles    
Events Rain    
T = Trace of Precipitation, MM = Missing Value Source: NWS Daily Summary

Daily Weather History Graph

Daily Weather History Graph

Search for Another Location

Airport:

Trip Planner

Search our weather history database for the weather conditions in past years. The results will help you decide how hot, cold, wet, or windy it might be!

Date:

Astronomy

Aug. 07, 2013 Rise Set
Actual Time 6:13 AM MDT 8:12 PM MDT
Civil Twilight 5:44 AM MDT 8:41 PM MDT
Nautical Twilight 5:08 AM MDT 9:17 PM MDT
Astronomical Twilight 4:29 AM MDT 9:55 PM MDT
Moon 7:04 AM MDT (8/7) 8:22 PM MDT (8/7)
Length of Visible Light 14h 57m
Length of Day
13h 58m
New Moon, 1% of the Moon is Illuminated
Aug 7
New Moon
Aug 14
First Quarter
Aug 20
Full
Aug 28
Last Quarter
Sep 5
New

Hourly Weather History & Observations

Time (MDT) Temp. Dew Point Humidity Pressure Visibility Wind Dir Wind Speed Gust Speed Precip Events Conditions
12:53 AM 50.0 °F 44.1 °F 80% 29.96 in 10.0 mi South 3.5 mph - N/A   Clear
1:53 AM 48.9 °F 45.0 °F 86% 29.97 in 10.0 mi SSW 6.9 mph - N/A   Clear
2:53 AM 46.9 °F 45.0 °F 93% 30.00 in 10.0 mi Calm Calm - N/A   Clear
3:53 AM 48.0 °F 44.1 °F 86% 30.02 in 10.0 mi South 5.8 mph - N/A   Clear
4:53 AM 46.9 °F 45.0 °F 93% 30.02 in 10.0 mi Calm Calm - N/A   Clear
5:53 AM 48.0 °F 44.1 °F 86% 30.01 in 10.0 mi South 4.6 mph - N/A   Clear
6:53 AM 48.0 °F 44.1 °F 86% 30.00 in 10.0 mi South 4.6 mph - N/A   Scattered Clouds
7:53 AM 50.0 °F 45.0 °F 83% 30.02 in 10.0 mi Calm Calm - N/A   Mostly Cloudy
8:53 AM 52.0 °F 46.0 °F 80% 30.04 in 10.0 mi Calm Calm - N/A   Mostly Cloudy
9:53 AM 54.0 °F 46.9 °F 77% 30.02 in 10.0 mi South 6.9 mph - N/A   Mostly Cloudy
10:53 AM 55.9 °F 43.0 °F 62% 30.04 in 10.0 mi SE 11.5 mph 21.9 mph N/A   Mostly Cloudy
11:53 AM 53.1 °F 45.0 °F 74% 30.10 in 10.0 mi ESE 12.7 mph 20.7 mph 0.01 in Rain Light Rain
12:53 PM 53.1 °F 46.9 °F 80% 30.10 in 10.0 mi SE 13.8 mph - 0.03 in Rain Light Rain
1:53 PM 55.9 °F 48.0 °F 75% 30.05 in 10.0 mi SE 15.0 mph - 0.01 in   Mostly Cloudy
2:53 PM 59.0 °F 45.0 °F 60% 30.02 in 10.0 mi ESE 9.2 mph - N/A   Overcast
3:53 PM 61.0 °F 45.0 °F 56% 29.97 in 10.0 mi ESE 5.8 mph - N/A   Mostly Cloudy
4:53 PM 64.0 °F 41.0 °F 43% 29.94 in 10.0 mi Calm Calm - N/A   Mostly Cloudy
5:53 PM 64.0 °F 43.0 °F 46% 29.94 in 10.0 mi Calm Calm - N/A   Mostly Cloudy
6:53 PM 64.0 °F 44.1 °F 48% 29.92 in 10.0 mi Calm Calm - N/A   Clear
7:53 PM 57.9 °F 50.0 °F 75% 29.95 in 10.0 mi SSW 6.9 mph - N/A   Mostly Cloudy
8:53 PM 57.9 °F 43.0 °F 58% 29.96 in 10.0 mi North 3.5 mph - N/A   Mostly Cloudy
9:53 PM 55.9 °F 46.0 °F 69% 29.97 in 10.0 mi SE 6.9 mph - N/A   Clear
10:53 PM 55.9 °F 44.1 °F 64% 29.95 in 10.0 mi SE 8.1 mph - N/A   Clear
11:53 PM 52.0 °F 45.0 °F 77% 29.99 in 10.0 mi SW 3.5 mph - N/A   Clear